* Astronomy

Members Login
Username 
 
Password 
    Remember Me  
Post Info TOPIC: COMET 154P/BREWINGTON


L

Posts: 131433
Date:
RE: COMET 154P/BREWINGTON
Permalink  
 


Comet 154P/Brewington is at Opposition (3.192 AU) in the constellation Leo on the 24th February 2015.

Ephemeris

Date    TT    R. A. (2000) Decl.     Delta      r    Elong.  Phase   Mag
2015 02 23    10 34 04.5 +12 50 21   3.1866  4.1741   176.1     0.9
2015 02 24    10 33 16.0 +12 52 38   3.1920  4.1801   176.5     0.8
2015 02 25    10 32 27.5 +12 54 52   3.1978  4.1861   176.4     0.8
2015 02 26    10 31 39.3 +12 57 05   3.2039  4.1920   176.0     0.9
2015 02 27    10 30 51.2 +12 59 14   3.2104  4.1980   175.3     1.1
2015 02 28    10 30 03.4 +13 01 22   3.2171  4.2039   174.4     1.3


__________________


L

Posts: 131433
Date:
Permalink  
 

Ephemeris

Date    TT    R. A. (2000) Decl.     Delta      r     Elong.  Phase   Mag
2013 12 13    23 04 21.8 +13 00 32   1.2467  1.6079    91.4    37.7   9.2
2013 12 14    23 06 24.8 +13 18 20   1.2536  1.6079    91.0    37.7   9.2
2013 12 15    23 08 29.1 +13 36 08   1.2605  1.6081    90.7    37.7   9.2
2013 12 16    23 10 34.7 +13 53 56   1.2674  1.6083    90.3    37.7   9.2
2013 12 17    23 12 41.7 +14 11 44   1.2744  1.6086    89.9    37.7   9.2
2013 12 18    23 14 50.0 +14 29 32   1.2814  1.6090    89.5    37.7   9.2
2013 12 19    23 16 59.6 +14 47 19   1.2885  1.6095    89.1    37.7   9.3
2013 12 20    23 19 10.4 +15 05 05   1.2956  1.6100    88.8    37.7   9.3
2013 12 21    23 21 22.5 +15 22 50   1.3027  1.6106    88.4    37.6   9.3
2013 12 22    23 23 35.9 +15 40 34   1.3099  1.6113    88.1    37.6   9.3
2013 12 23    23 25 50.5 +15 58 17   1.3172  1.6121    87.7    37.6   9.3
2013 12 24    23 28 06.3 +16 15 59   1.3245  1.6129    87.4    37.5   9.3
2013 12 25    23 30 23.4 +16 33 39   1.3319  1.6139    87.0    37.5   9.4
2013 12 26    23 32 41.6 +16 51 17   1.3393  1.6149    86.7    37.4   9.4
2013 12 27    23 35 01.0 +17 08 53   1.3468  1.6159    86.3    37.4   9.4
2013 12 28    23 37 21.5 +17 26 28   1.3543  1.6171    86.0    37.3   9.4
2013 12 29    23 39 43.2 +17 44 00   1.3619  1.6183    85.7    37.3   9.4
2013 12 30    23 42 06.1 +18 01 30   1.3696  1.6196    85.3    37.2   9.5
2013 12 31    23 44 30.0 +18 18 57   1.3772  1.6210    85.0    37.2   9.5


__________________


L

Posts: 131433
Date:
Permalink  
 

Comet 154P/Brewington is at perihelion (1.608 AU) on the 12th December 2013



__________________


L

Posts: 131433
Date:
Permalink  
 

Comet 154P/Brewington makes its closest approach to the Earth (0.889 AU) on the 23rd September 2013.



__________________


L

Posts: 131433
Date:
Permalink  
 

Comet 154P/Brewington is at Opposition (0.956 AU) on the 30th August, 2013

Ephemeris

Date    TT    R. A. (2000) Decl.     Delta      r     Elong.  Phase   Mag
2013 08 28    22 39 19.0 -14 15 56   0.9683  1.9761   174.5     2.8  11.3
2013 08 29    22 38 10.6 -14 07 02   0.9622  1.9702   174.9     2.6  11.3
2013 08 30    22 37 01.4 -13 57 56   0.9564  1.9643   175.0     2.5  11.2
2013 08 31    22 35 51.3 -13 48 37   0.9509  1.9584   174.9     2.6  11.1
2013 09 01    22 34 40.6 -13 39 06   0.9456  1.9526   174.5     2.8  11.1
2013 09 02    22 33 29.2 -13 29 22   0.9405  1.9468   173.9     3.2  11.0
2013 09 03    22 32 17.3 -13 19 26   0.9357  1.9410   173.1     3.6  11.0
2013 09 04    22 31 05.1 -13 09 16   0.9311  1.9352   172.3     4.0  10.9
2013 09 05    22 29 52.6 -12 58 55   0.9268  1.9295   171.3     4.5  10.9
2013 09 06    22 28 39.9 -12 48 20   0.9227  1.9238   170.3     5.1  10.9
2013 09 07    22 27 27.3 -12 37 32   0.9188  1.9181   169.2     5.6  10.8
2013 09 08    22 26 14.7 -12 26 32   0.9152  1.9125   168.2     6.2  10.8
2013 09 09    22 25 02.3 -12 15 19   0.9118  1.9069   167.1     6.8  10.7
2013 09 10    22 23 50.3 -12 03 53   0.9087  1.9014   165.9     7.4  10.7
2013 09 11    22 22 38.8 -11 52 15   0.9058  1.8958   164.8     8.0  10.6
2013 09 12    22 21 27.9 -11 40 24   0.9032  1.8903   163.7     8.6  10.6
2013 09 13    22 20 17.6 -11 28 21   0.9007  1.8849   162.5     9.2  10.5
2013 09 14    22 19 08.2 -11 16 07   0.8985  1.8794   161.4     9.8  10.5
2013 09 15    22 17 59.7 -11 03 40   0.8966  1.8740   160.2    10.5  10.4
2013 09 16    22 16 52.3 -10 51 03   0.8948  1.8687   159.1    11.1  10.4
2013 09 17    22 15 46.0 -10 38 14   0.8933  1.8634   157.9    11.7  10.4
2013 09 18    22 14 40.9 -10 25 14   0.8920  1.8581   156.8    12.3  10.3
2013 09 19    22 13 37.3 -10 12 04   0.8909  1.8529   155.6    12.9  10.3
2013 09 20    22 12 35.0 -09 58 43   0.8900  1.8477   154.5    13.5  10.2
2013 09 21    22 11 34.3 -09 45 13   0.8894  1.8425   153.3    14.2  10.2
2013 09 22    22 10 35.2 -09 31 33   0.8889  1.8374   152.2    14.8  10.2
2013 09 23    22 09 37.9 -09 17 44   0.8886  1.8323   151.1    15.4  10.1
2013 09 24    22 08 42.4 -09 03 46   0.8886  1.8273   149.9    16.0  10.1
2013 09 25    22 07 48.7 -08 49 39   0.8887  1.8223   148.8    16.6  10.1
2013 09 26    22 06 57.1 -08 35 24   0.8890  1.8173   147.7    17.1  10.0
2013 09 27    22 06 07.5 -08 21 02   0.8896  1.8124   146.6    17.7  10.0
2013 09 28    22 05 20.0 -08 06 31   0.8903  1.8075   145.5    18.3  10.0
2013 09 29    22 04 34.8 -07 51 54   0.8912  1.8027   144.4    18.9   9.9
2013 09 30    22 03 51.8 -07 37 10   0.8923  1.7979   143.3    19.4   9.9


__________________


L

Posts: 131433
Date:
Permalink  
 

Orbital elements:
 154P/Brewington
Epoch 2013 Apr. 18.0 TT = JDT 2456400.5
T 2013 Dec. 12.48980 TT                                 MPC
q   1.6079617            (2000.0)            P               Q
n   0.09138192     Peri.   49.02541     +0.83287616     -0.54658125
a   4.8816040      Node   343.49726     +0.36940031     +0.66602035
e   0.6706079      Incl.   17.83136     +0.41214162     +0.50760795
P  10.8
From 343 observations 1992 Aug. 28-2013 Aug. 2

MPEC 2013 - P10 



__________________
Page 1 of 1  sorted by
 
Quick Reply

Please log in to post quick replies.



Create your own FREE Forum
Report Abuse
Powered by ActiveBoard